DW3212 Weather Reports


time (UTC)temp
F
wind
direction
speed
knots
gust
knots
rain 1hr
in
rain 24hr
in
rain mn
in
humidity
%
barometer
mb
20260901231607 59 0.0 0.0 0.00 0.54 0.54 97 1019.0
20260901230101 60 0.0 0.0 0.00 0.54 0.54 97 1019.2
20260901224559 60 0.0 0.0 0.01 0.54 0.54 97 1019.0
20260901223103 60 0.0 0.0 0.01 0.54 0.54 97 1019.2
20260901221624 60 0.0 0.0 0.01 0.54 0.54 97 1019.1
20260901220117 60 0.0 0.0 0.01 0.54 0.54 97 1018.9
20260901214603 60 0.0 0.0 0.00 0.52 0.52 97 1018.7
20260901213101 60 0.0 0.0 0.00 0.52 0.52 97 1018.6
20260901211602 60 0.0 0.0 0.00 0.52 0.52 97 1018.5
20260901204601 60 0.0 0.0 0.00 0.52 0.52 97 1018.6
20260901203113 60 0.0 0.0 0.00 0.52 0.52 97 1018.5
20260901201600 60 0.0 0.0 0.00 0.52 0.52 97 1018.5
20260901200059 60 0.0 0.0 0.00 0.52 0.52 97 1018.3
20260901194608 60 0.0 0.0 0.00 0.52 0.52 97 1018.2
20260901193101 61 0.0 0.0 0.00 0.52 0.52 97 1018.2
20260901191617 61 0.0 0.0 0.00 0.52 0.52 97 1018.2
20260901190101 60 0.0 0.0 0.00 0.52 0.52 97 1018.3
20260901184559 60 0.0 0.0 0.01 0.52 0.52 97 1018.4
20260901183103 60 0.0 0.0 0.02 0.52 0.52 97 1018.4
20260901181610 60 0.0 0.0 0.02 0.52 0.52 97 1018.3
20260901174600 60 0.0 0.0 0.06 0.52 0.52 97 1018.2
20260901173104 60 0.0 0.0 0.05 0.51 0.51 97 1018.1
20260901171607 61 0.0 0.0 0.05 0.51 0.51 96 1018.1
20260901170106 61 0.0 0.0 0.03 0.49 0.49 97 1017.9
20260901164606 61 0.0 0.0 0.02 0.46 0.46 97 1018.0
20260901163109 61 0.0 0.0 0.06 0.46 0.46 97 1018.0
20260901161611 61 0.0 0.0 0.10 0.46 0.46 97 1018.0
20260901160111 61 0.0 0.0 0.12 0.46 0.46 97 1016.7
20260901154600 61 0.0 0.0 0.10 0.44 0.44 97 1017.6
20260901153103 61 0.0 0.0 0.06 0.40 0.40 97 1018.3
20260901151602 61 0.0 0.0 0.02 0.36 0.36 97 1017.9
20260901144605 61 0.0 0.0 0.02 0.34 0.34 97 1017.9
20260901143102 61 0.0 0.0 0.02 0.34 0.34 97 1017.9
20260901141605 61 0.0 0.0 0.03 0.34 0.34 97 1017.8
20260901140111 60 0.0 0.0 0.02 0.33 0.33 97 1018.2
20260901134559 60 0.0 0.0 0.01 0.32 0.32 97 1018.4
20260901133058 60 0.0 0.0 0.01 0.32 0.32 97 1018.6
20260901131606 60 0.0 0.0 0.00 0.31 0.31 97 1018.5
20260901130108 60 0.0 0.0 0.00 0.31 0.31 97 1018.7
20260901124607 60 0.0 0.0 0.01 0.31 0.31 97 1018.6
20260901123101 60 0.0 0.0 0.01 0.31 0.31 97 1018.5
20260901121600 60 0.0 0.0 0.03 0.31 0.31 97 1018.8
20260901120056 60 0.0 0.0 0.10 0.31 0.31 97 1018.8
20260901114643 60 0.0 0.0 0.16 0.30 0.30 97 1018.6
20260901113101 60 0.0 0.0 0.22 0.30 0.30 97 1018.6
20260901111600 60 0.0 0.0 0.23 0.28 0.28 97 1018.8
20260901110105 60 0.0 0.0 0.20 0.21 0.21 96 1018.4
20260901104605 60 0.0 0.0 0.14 0.14 0.14 96 1018.4
20260901103106 60 0.0 0.0 0.08 0.08 0.08 96 1018.3
20260901101605 60 0.0 0.0 0.05 0.05 0.05 95 1018.1
20260901100106 60 0.0 0.0 0.01 0.01 0.01 95 1018.0
20260901094604 60 0.0 0.0 0.00 0.00 0.00 95 1018.0
20260901093104 60 0.0 0.0 0.00 0.00 0.00 95 1018.0
20260901091614 60 0.0 0.0 0.00 0.00 0.00 95 1017.9
20260901084605 60 0.0 0.0 0.00 0.00 0.00 95 1018.2
20260901083102 60 0.0 0.0 0.00 0.00 0.00 95 1018.1
20260901081602 60 0.0 0.0 0.00 0.00 0.00 95 1018.3
20260901080107 60 0.0 0.0 0.00 0.00 0.00 95 1018.3
20260901074605 60 0.0 0.0 0.00 0.00 0.00 95 1018.1
20260901073104 60 0.0 0.0 0.00 0.00 0.00 94 1018.1
20260901071601 61 0.0 0.0 0.00 0.00 0.00 94 1018.2
20260901070114 61 0.0 0.0 0.00 0.00 0.00 94 1018.5
20260901064603 61 0.0 0.0 0.00 0.00 0.00 93 1019.0
20260901063058 61 0.0 0.0 0.00 0.00 0.00 93 1019.1
20260901061603 61 0.0 0.0 0.00 0.00 0.00 92 1019.2
20260901060108 61 0.0 0.0 0.00 0.00 0.00 92 1019.2
20260901054605 61 0.0 0.0 0.00 0.00 0.00 92 1019.1
20260901053110 61 0.0 0.0 0.00 0.00 0.00 91 1019.2
20260901051606 62 0.0 0.0 0.00 0.00 0.00 90 1019.4
20260901050105 62 0.0 0.0 0.00 0.00 0.00 90 1019.3
20260901044609 62 0.0 0.0 0.00 0.00 0.00 90 1019.2
20260901043107 62 0.0 0.0 0.00 0.00 0.00 91 1019.3
20260901041604 62 0.0 0.0 0.00 0.00 0.00 90 1019.2
20260901040101 62 0.0 0.0 0.00 0.00 0.00 88 1019.3
20260901034604 62 0.0 0.0 0.00 0.00 0.00 89 1019.2
20260901033117 62 0.0 0.0 0.00 0.00 0.00 89 1019.3
20260901031608 62 0.0 0.0 0.00 0.00 0.00 89 1019.4
20260901030104 62 0.0 0.0 0.00 0.00 0.00 89 1019.5
20260901024602 63 0.0 0.0 0.00 0.00 0.00 88 1019.7
20260901023101 63 0.0 0.0 0.00 0.00 0.00 88 1019.8
20260901021605 63 0.0 0.0 0.00 0.00 0.00 89 1019.7
20260901014559 63 0.0 0.0 0.00 0.00 0.00 88 1019.7
20260901013113 63 0.0 0.0 0.00 0.00 0.00 88 1019.8
20260901011615 63 0.0 0.0 0.00 0.00 0.00 88 1019.8
20260901010113 63 0.0 0.0 0.00 0.00 0.00 87 1019.8
20260901004604 63 0.0 0.0 0.00 0.00 0.00 85 1019.7
20260901003059 63 0.0 0.0 0.00 0.00 0.00 84 1019.7
20260901001600 63 0.0 0.0 0.00 0.00 0.00 84 1019.6
20260901000103 64 0.0 0.0 0.00 0.00 0.00 83 1019.7
20260831234604 64 0.0 0.0 0.00 0.00 0.00 83 1019.5
20260831233101 64 0.0 0.0 0.00 0.00 0.00 82 1019.6